status,avgMeasuredTime,avgSpeed,extID,medianMeasuredTime,TIMESTAMP,vehicleCount,_id,REPORT_ID
OK,90,31,812,90,2014-08-01T07:55:00,6,20746536,184621
OK,90,31,812,90,2014-08-01T08:00:00,6,20746867,184621
OK,124,22,812,124,2014-08-01T08:05:00,4,20747316,184621
OK,120,23,812,120,2014-08-01T08:10:00,0,20747689,184621
OK,113,25,812,113,2014-08-01T08:15:00,1,20748138,184621
OK,95,29,812,95,2014-08-01T08:20:00,2,20748587,184621
OK,77,36,812,77,2014-08-01T08:25:00,1,20749036,184621
OK,112,25,812,112,2014-08-01T08:30:00,1,20749485,184621
OK,136,20,812,136,2014-08-01T08:35:00,5,20749934,184621
OK,136,20,812,136,2014-08-01T08:40:00,5,20750383,184621
OK,85,33,812,85,2014-08-01T08:45:00,2,20750832,184621
OK,79,35,812,79,2014-08-01T08:50:00,5,20751281,184621
OK,88,32,812,88,2014-08-01T08:55:00,6,20751730,184621
OK,99,28,812,99,2014-08-01T09:00:00,3,20752179,184621
OK,109,26,812,109,2014-08-01T09:05:00,2,20752628,184621
OK,106,26,812,106,2014-08-01T09:10:00,3,20753077,184621
OK,106,26,812,106,2014-08-01T09:15:00,1,20753526,184621
OK,176,16,812,176,2014-08-01T09:20:00,1,20753975,184621
OK,176,16,812,176,2014-08-01T09:25:00,1,20754424,184621
OK,126,22,812,126,2014-08-01T09:30:00,1,20754873,184621
OK,121,23,812,121,2014-08-01T09:35:00,4,20755322,184621
OK,126,22,812,126,2014-08-01T09:40:00,4,20755771,184621
OK,132,21,812,132,2014-08-01T09:45:00,1,20756220,184621
OK,123,23,812,123,2014-08-01T09:50:00,4,20756669,184621
OK,122,23,812,122,2014-08-01T09:55:00,3,20757118,184621
OK,124,22,812,124,2014-08-01T10:00:00,0,20757567,184621
OK,142,20,812,142,2014-08-01T10:05:00,2,20758016,184621
OK,95,29,812,95,2014-08-01T10:10:00,5,20758465,184621
OK,122,23,812,122,2014-08-01T10:15:00,4,20758914,184621
OK,122,23,812,122,2014-08-01T10:20:00,2,20759363,184621
OK,113,25,812,113,2014-08-01T10:25:00,1,20759812,184621
OK,119,23,812,119,2014-08-01T10:30:00,4,20760261,184621
OK,109,26,812,109,2014-08-01T10:35:00,3,20760710,184621
OK,87,32,812,87,2014-08-01T10:40:00,2,20761159,184621
OK,76,37,812,76,2014-08-01T10:45:00,2,20761608,184621
OK,87,32,812,87,2014-08-01T10:50:00,1,20762057,184621
OK,87,32,812,87,2014-08-01T10:55:00,0,20762506,184621
OK,87,32,812,87,2014-08-01T11:00:00,0,20762955,184621
OK,87,32,812,87,2014-08-01T11:05:00,0,20763404,184621
OK,88,32,812,88,2014-08-01T11:10:00,3,20763853,184621
OK,91,31,812,91,2014-08-01T11:15:00,6,20764301,184621
OK,96,29,812,96,2014-08-01T11:20:00,6,20764750,184621
OK,91,31,812,91,2014-08-01T11:25:00,4,20765199,184621
OK,80,35,812,80,2014-08-01T11:30:00,2,20765648,184621
OK,98,28,812,98,2014-08-01T11:35:00,1,20766097,184621
OK,98,28,812,98,2014-08-01T11:40:00,3,20766546,184621
OK,79,35,812,79,2014-08-01T11:45:00,3,20766995,184621
OK,58,48,812,58,2014-08-01T11:50:00,1,20767444,184621
OK,58,48,812,58,2014-08-01T11:55:00,0,20767893,184621
OK,63,45,812,63,2014-08-01T12:00:00,1,20768342,184621
OK,112,25,812,112,2014-08-01T12:05:00,4,20768791,184621
OK,112,25,812,112,2014-08-01T12:10:00,4,20769240,184621
OK,89,31,812,89,2014-08-01T12:15:00,4,20769689,184621
OK,98,28,812,98,2014-08-01T12:20:00,7,20770138,184621
OK,87,32,812,87,2014-08-01T12:25:00,8,20770587,184621
OK,81,35,812,81,2014-08-01T12:30:00,7,20771036,184621
OK,80,35,812,80,2014-08-01T12:35:00,4,20771485,184621
OK,102,27,812,102,2014-08-01T12:40:00,1,20771934,184621
OK,100,28,812,100,2014-08-01T12:45:00,1,20772383,184621
OK,170,16,812,170,2014-08-01T12:50:00,2,20772832,184621
OK,115,24,812,115,2014-08-01T12:55:00,2,20773281,184621
OK,119,23,812,119,2014-08-01T13:00:00,4,20773730,184621
OK,142,20,812,142,2014-08-01T13:05:00,3,20774179,184621
OK,99,28,812,99,2014-08-01T13:10:00,5,20774628,184621
OK,99,28,812,99,2014-08-01T13:15:00,7,20775077,184621
OK,100,28,812,100,2014-08-01T13:20:00,6,20775526,184621
OK,97,29,812,97,2014-08-01T13:25:00,4,20775975,184621
OK,107,26,812,107,2014-08-01T13:30:00,3,20776424,184621
OK,109,26,812,109,2014-08-01T13:35:00,6,20776873,184621
OK,99,28,812,99,2014-08-01T13:40:00,8,20777322,184621
OK,98,28,812,98,2014-08-01T13:45:00,4,20777771,184621
OK,77,36,812,77,2014-08-01T13:50:00,1,20778220,184621
OK,76,37,812,76,2014-08-01T13:55:00,2,20778669,184621
OK,76,37,812,76,2014-08-01T14:00:00,3,20779118,184621
OK,118,24,812,118,2014-08-01T14:05:00,5,20779567,184621
OK,120,23,812,120,2014-08-01T14:10:00,3,20780016,184621
OK,72,39,812,72,2014-08-01T14:15:00,1,20780465,184621
OK,102,27,812,102,2014-08-01T14:20:00,2,20780914,184621
OK,97,29,812,97,2014-08-01T14:25:00,3,20781363,184621
OK,97,29,812,97,2014-08-01T14:30:00,1,20781812,184621
OK,97,29,812,97,2014-08-01T14:35:00,0,20782261,184621
OK,97,29,812,97,2014-08-01T14:40:00,0,20782710,184621
OK,103,27,812,103,2014-08-01T14:45:00,2,20783159,184621
OK,103,27,812,103,2014-08-01T14:50:00,0,20783608,184621
OK,69,41,812,69,2014-08-01T14:55:00,1,20784057,184621
OK,54,52,812,54,2014-08-01T15:00:00,3,20784506,184621
OK,100,28,812,100,2014-08-01T15:05:00,2,20784955,184621
OK,100,28,812,100,2014-08-01T15:10:00,0,20785404,184621
OK,92,30,812,92,2014-08-01T15:15:00,2,20785853,184621
OK,92,30,812,92,2014-08-01T15:20:00,2,20786302,184621
OK,67,42,812,67,2014-08-01T15:25:00,0,20786751,184621
OK,67,42,812,67,2014-08-01T15:30:00,0,20787200,184621
OK,67,42,812,67,2014-08-01T15:35:00,0,20787649,184621
OK,69,41,812,69,2014-08-01T15:40:00,1,20788098,184621
OK,39,72,812,39,2014-08-01T15:45:00,1,20788547,184621
OK,55,51,812,55,2014-08-01T15:50:00,3,20788996,184621
OK,88,32,812,88,2014-08-01T15:55:00,2,20789445,184621
OK,115,24,812,115,2014-08-01T16:00:00,2,20789894,184621
OK,109,26,812,109,2014-08-01T16:05:00,3,20790343,184621
OK,113,25,812,113,2014-08-01T16:10:00,3,20790792,184621
OK,104,27,812,104,2014-08-01T16:15:00,4,20791241,184621
OK,101,28,812,101,2014-08-01T16:20:00,3,20791690,184621
OK,101,28,812,101,2014-08-01T16:25:00,0,20792139,184621
OK,62,45,812,62,2014-08-01T16:30:00,1,20792588,184621
OK,62,45,812,62,2014-08-01T16:35:00,1,20793037,184621
OK,62,45,812,62,2014-08-01T16:40:00,0,20793486,184621
OK,62,45,812,62,2014-08-01T16:45:00,0,20793935,184621
OK,62,45,812,62,2014-08-01T16:50:00,1,20794384,184621
OK,62,45,812,62,2014-08-01T16:55:00,1,20794833,184621
OK,62,45,812,62,2014-08-01T17:00:00,0,20795282,184621
OK,70,40,812,70,2014-08-01T17:05:00,1,20795731,184621
OK,70,40,812,70,2014-08-01T17:10:00,1,20796180,184621
OK,70,40,812,70,2014-08-01T17:15:00,0,20796629,184621
OK,70,40,812,70,2014-08-01T17:20:00,0,20797078,184621
OK,73,38,812,73,2014-08-01T17:25:00,1,20797527,184621
OK,73,38,812,73,2014-08-01T17:30:00,3,20797976,184621
OK,100,28,812,100,2014-08-01T17:35:00,2,20798425,184621
OK,67,42,812,67,2014-08-01T17:40:00,1,20798874,184621
OK,61,46,812,61,2014-08-01T17:45:00,2,20799323,184621
OK,51,55,812,51,2014-08-01T17:50:00,6,20799772,184621
OK,52,54,812,52,2014-08-01T17:55:00,4,20800221,184621
OK,124,22,812,124,2014-08-01T18:00:00,2,20800670,184621
OK,178,15,812,178,2014-08-01T18:05:00,1,20801119,184621
OK,178,15,812,178,2014-08-01T18:10:00,0,20801568,184621
OK,178,15,812,178,2014-08-01T18:15:00,0,20802017,184621
OK,178,15,812,178,2014-08-01T18:20:00,0,20802466,184621
OK,178,15,812,178,2014-08-01T18:25:00,0,20802915,184621
OK,178,15,812,178,2014-08-01T18:30:00,0,20803364,184621
OK,54,52,812,54,2014-08-01T18:35:00,2,20803813,184621
OK,54,52,812,54,2014-08-01T18:40:00,2,20804262,184621
OK,50,56,812,50,2014-08-01T18:45:00,1,20804711,184621
OK,51,55,812,51,2014-08-01T18:50:00,1,20805160,184621
OK,51,55,812,51,2014-08-01T18:55:00,1,20805609,184621
OK,51,55,812,51,2014-08-01T19:00:00,0,20806058,184621
OK,51,55,812,51,2014-08-01T19:05:00,0,20806507,184621
OK,51,55,812,51,2014-08-01T19:10:00,0,20806956,184621
OK,51,55,812,51,2014-08-01T19:15:00,0,20807405,184621
OK,51,55,812,51,2014-08-01T19:20:00,1,20807854,184621
OK,51,55,812,51,2014-08-01T19:25:00,0,20808303,184621
OK,51,55,812,51,2014-08-01T19:30:00,0,20808752,184621
OK,51,55,812,51,2014-08-01T19:35:00,0,20809201,184621
OK,75,37,812,75,2014-08-01T19:40:00,1,20809650,184621
OK,75,37,812,75,2014-08-01T19:45:00,1,20810099,184621
OK,75,37,812,75,2014-08-01T19:50:00,0,20810548,184621
OK,51,55,812,51,2014-08-01T19:55:00,1,20810997,184621
OK,74,38,812,74,2014-08-01T22:00:00,0,20816726,184621
OK,74,38,812,74,2014-08-01T22:05:00,0,20817175,184621
OK,81,35,812,81,2014-08-02T00:00:00,0,20823165,184621
OK,81,35,812,81,2014-08-02T00:05:00,0,20823614,184621
OK,81,35,812,81,2014-08-02T00:10:00,0,20824063,184621
OK,81,35,812,81,2014-08-02T00:15:00,0,20824512,184621
OK,81,35,812,81,2014-08-02T00:20:00,0,20824961,184621
OK,81,35,812,81,2014-08-02T00:25:00,0,20825410,184621
OK,81,35,812,81,2014-08-02T00:30:00,0,20825859,184621
OK,81,35,812,81,2014-08-02T00:35:00,0,20826308,184621
OK,81,35,812,81,2014-08-02T00:40:00,0,20826757,184621
OK,81,35,812,81,2014-08-02T00:45:00,0,20827206,184621
OK,81,35,812,81,2014-08-02T00:50:00,0,20827655,184621
OK,38,74,812,38,2014-08-02T00:55:00,1,20828104,184621
OK,38,74,812,38,2014-08-02T01:00:00,1,20828553,184621
OK,38,74,812,38,2014-08-02T01:05:00,0,20829002,184621
OK,38,74,812,38,2014-08-02T01:10:00,0,20829451,184621
OK,38,74,812,38,2014-08-02T01:15:00,0,20829900,184621
OK,38,74,812,38,2014-08-02T01:20:00,0,20830349,184621
OK,38,74,812,38,2014-08-02T01:25:00,0,20830798,184621
OK,44,64,812,44,2014-08-02T01:30:00,1,20831247,184621
OK,44,64,812,44,2014-08-02T01:35:00,1,20831696,184621
OK,74,38,812,74,2014-08-02T01:40:00,1,20832145,184621
OK,74,38,812,74,2014-08-02T01:45:00,1,20832594,184621
OK,74,38,812,74,2014-08-02T01:50:00,0,20833043,184621
OK,74,38,812,74,2014-08-02T01:55:00,0,20833492,184621
OK,80,35,812,80,2014-08-02T02:00:00,1,20833941,184621
OK,80,35,812,80,2014-08-02T02:05:00,1,20834390,184621
OK,80,35,812,80,2014-08-02T02:10:00,0,20834839,184621
OK,80,35,812,80,2014-08-02T02:15:00,0,20835288,184621
OK,80,35,812,80,2014-08-02T02:20:00,0,20835737,184621
OK,62,45,812,62,2014-08-02T02:25:00,0,20836186,184621
OK,62,45,812,62,2014-08-02T02:30:00,0,20836635,184621
OK,63,45,812,63,2014-08-02T02:35:00,0,20837084,184621
OK,63,45,812,63,2014-08-02T02:40:00,0,20837533,184621
OK,63,45,812,63,2014-08-02T02:45:00,0,20837982,184621
OK,63,45,812,63,2014-08-02T02:50:00,0,20838431,184621
OK,63,45,812,63,2014-08-02T02:55:00,0,20838880,184621
OK,63,45,812,63,2014-08-02T03:00:00,0,20839329,184621
OK,63,45,812,63,2014-08-02T03:05:00,0,20839778,184621
OK,63,45,812,63,2014-08-02T03:10:00,0,20840227,184621
OK,63,45,812,63,2014-08-02T03:15:00,0,20840676,184621
OK,63,45,812,63,2014-08-02T03:20:00,0,20841125,184621
OK,63,45,812,63,2014-08-02T03:25:00,0,20841574,184621
OK,63,45,812,63,2014-08-02T03:30:00,0,20842023,184621
OK,63,45,812,63,2014-08-02T03:35:00,0,20842472,184621
OK,63,45,812,63,2014-08-02T03:40:00,0,20842921,184621
OK,63,45,812,63,2014-08-02T03:45:00,0,20843370,184621
OK,63,45,812,63,2014-08-02T03:50:00,0,20843819,184621
OK,63,45,812,63,2014-08-02T03:55:00,0,20844268,184621
OK,32,88,812,32,2014-08-02T04:20:00,1,20845714,184621
OK,32,88,812,32,2014-08-02T04:35:00,0,20846637,184621
OK,32,88,812,32,2014-08-02T04:45:00,0,20847279,184621
OK,32,88,812,32,2014-08-02T04:50:00,0,20847645,184621
OK,72,39,812,72,2014-08-02T05:40:00,0,20850506,184621
OK,76,37,812,76,2014-08-02T05:50:00,1,20851165,184621
OK,76,37,812,76,2014-08-02T06:00:00,0,20851722,184621
OK,76,37,812,76,2014-08-02T06:05:00,0,20852171,184621
OK,65,43,812,65,2014-08-02T06:10:00,1,20852620,184621
OK,65,43,812,65,2014-08-02T06:15:00,0,20853069,184621
OK,65,43,812,65,2014-08-02T06:20:00,0,20853518,184621
OK,65,43,812,65,2014-08-02T06:25:00,0,20853967,184621
OK,52,54,812,52,2014-08-02T06:30:00,1,20854416,184621
OK,52,54,812,52,2014-08-02T06:35:00,0,20854865,184621
OK,52,54,812,52,2014-08-02T06:40:00,0,20855314,184621
OK,67,42,812,67,2014-08-02T06:45:00,2,20855763,184621
OK,67,42,812,67,2014-08-02T06:50:00,2,20856212,184621
OK,51,55,812,51,2014-08-02T06:55:00,0,20856661,184621
OK,51,55,812,51,2014-08-02T07:00:00,0,20857110,184621
OK,51,55,812,51,2014-08-02T07:05:00,0,20857559,184621
OK,141,20,812,141,2014-08-02T07:10:00,1,20858008,184621
OK,141,20,812,141,2014-08-02T07:15:00,1,20858457,184621
OK,60,47,812,60,2014-08-02T07:20:00,1,20858906,184621
OK,57,49,812,57,2014-08-02T07:25:00,2,20859355,184621
OK,54,52,812,54,2014-08-02T07:30:00,1,20859804,184621
OK,68,41,812,68,2014-08-02T07:35:00,2,20860253,184621
OK,66,43,812,66,2014-08-02T07:40:00,3,20860702,184621
OK,57,49,812,57,2014-08-02T07:45:00,1,20861151,184621
OK,57,49,812,57,2014-08-02T07:50:00,0,20861600,184621
OK,57,49,812,57,2014-08-02T07:55:00,0,20862049,184621
OK,57,49,812,57,2014-08-02T08:00:00,0,20862498,184621
OK,57,49,812,57,2014-08-02T08:05:00,0,20862947,184621
OK,122,23,812,122,2014-08-02T08:10:00,1,20863396,184621
OK,91,31,812,91,2014-08-02T08:15:00,2,20863845,184621
OK,61,46,812,61,2014-08-02T08:20:00,1,20864294,184621
OK,76,37,812,76,2014-08-02T08:25:00,1,20864743,184621
OK,76,37,812,76,2014-08-02T08:30:00,1,20865192,184621
OK,104,27,812,104,2014-08-02T08:35:00,2,20865641,184621
OK,107,26,812,107,2014-08-02T08:40:00,3,20866090,184621
OK,68,41,812,68,2014-08-02T08:45:00,6,20866539,184621
OK,67,42,812,67,2014-08-02T08:50:00,5,20866988,184621
OK,125,22,812,125,2014-08-02T08:55:00,2,20867437,184621
OK,125,22,812,125,2014-08-02T09:00:00,2,20867886,184621
OK,112,25,812,112,2014-08-02T09:05:00,0,20868335,184621
OK,86,33,812,86,2014-08-02T09:10:00,1,20868784,184621
OK,86,33,812,86,2014-08-02T09:15:00,0,20869233,184621
OK,109,26,812,109,2014-08-02T09:20:00,3,20869682,184621
OK,112,25,812,112,2014-08-02T09:25:00,5,20870131,184621
OK,120,23,812,120,2014-08-02T09:30:00,2,20870580,184621
OK,102,27,812,102,2014-08-02T09:35:00,2,20871029,184621
OK,75,37,812,75,2014-08-02T09:40:00,4,20871478,184621
OK,69,41,812,69,2014-08-02T09:45:00,8,20871927,184621
OK,75,37,812,75,2014-08-02T09:50:00,8,20872376,184621
OK,90,31,812,90,2014-08-02T09:55:00,2,20872825,184621
OK,43,66,812,43,2014-08-02T10:00:00,0,20873274,184621
OK,78,36,812,78,2014-08-02T10:05:00,1,20873723,184621
OK,112,25,812,112,2014-08-02T10:10:00,5,20874172,184621
OK,102,27,812,102,2014-08-02T10:15:00,6,20874621,184621
OK,53,53,812,53,2014-08-02T10:20:00,3,20875070,184621
OK,102,27,812,102,2014-08-02T10:25:00,3,20875519,184621
OK,107,26,812,107,2014-08-02T10:30:00,4,20875968,184621
OK,108,26,812,108,2014-08-02T10:35:00,2,20876417,184621
OK,108,26,812,108,2014-08-02T10:40:00,0,20876866,184621
OK,144,19,812,144,2014-08-02T10:45:00,1,20877315,184621
OK,144,19,812,144,2014-08-02T10:50:00,1,20877764,184621
OK,93,30,812,93,2014-08-02T10:55:00,1,20878213,184621
OK,116,24,812,116,2014-08-02T11:00:00,2,20878662,184621
OK,209,13,812,209,2014-08-02T11:05:00,2,20879111,184621
OK,279,10,812,279,2014-08-02T11:10:00,1,20879560,184621
OK,121,23,812,121,2014-08-02T11:15:00,3,20880009,184621
OK,107,26,812,107,2014-08-02T11:20:00,4,20880458,184621
OK,93,30,812,93,2014-08-02T11:25:00,1,20880907,184621
OK,93,30,812,93,2014-08-02T11:30:00,0,20881356,184621
OK,61,46,812,61,2014-08-02T11:35:00,1,20881805,184621
OK,61,46,812,61,2014-08-02T11:40:00,1,20882254,184621
OK,61,46,812,61,2014-08-02T11:45:00,0,20882703,184621
OK,91,31,812,91,2014-08-02T11:50:00,1,20883152,184621
OK,94,30,812,94,2014-08-02T11:55:00,2,20883601,184621
OK,86,33,812,86,2014-08-02T12:00:00,4,20884050,184621
OK,81,35,812,81,2014-08-02T12:05:00,4,20884499,184621
OK,118,24,812,118,2014-08-02T12:10:00,1,20884948,184621
OK,118,24,812,118,2014-08-02T12:15:00,0,20885397,184621
OK,118,24,812,118,2014-08-02T12:20:00,0,20885846,184621
OK,118,24,812,118,2014-08-02T12:25:00,0,20886295,184621
OK,118,24,812,118,2014-08-02T12:30:00,0,20886744,184621
OK,118,24,812,118,2014-08-02T12:35:00,0,20887193,184621
OK,84,33,812,84,2014-08-02T12:40:00,2,20887642,184621
OK,92,30,812,92,2014-08-02T12:45:00,3,20888091,184621
OK,107,26,812,107,2014-08-02T12:50:00,2,20888540,184621
OK,115,24,812,115,2014-08-02T12:55:00,1,20888989,184621
OK,47,60,812,47,2014-08-02T13:00:00,1,20889438,184621
OK,70,40,812,70,2014-08-02T13:05:00,2,20889887,184621
OK,93,30,812,93,2014-08-02T13:10:00,1,20890336,184621
OK,71,40,812,71,2014-08-02T13:15:00,3,20890785,184621
OK,50,56,812,50,2014-08-02T13:20:00,1,20891234,184621
OK,74,38,812,74,2014-08-02T13:25:00,2,20891683,184621
OK,99,28,812,99,2014-08-02T13:30:00,1,20892132,184621
OK,122,23,812,122,2014-08-02T13:35:00,1,20892581,184621
OK,122,23,812,122,2014-08-02T13:40:00,1,20893030,184621
OK,106,26,812,106,2014-08-02T13:45:00,3,20893479,184621
OK,106,26,812,106,2014-08-02T13:50:00,3,20893928,184621
OK,109,26,812,109,2014-08-02T13:55:00,0,20894377,184621
OK,109,26,812,109,2014-08-02T14:00:00,0,20894826,184621
OK,132,21,812,132,2014-08-02T14:05:00,1,20895275,184621
OK,106,26,812,106,2014-08-02T14:10:00,2,20895724,184621
OK,63,45,812,63,2014-08-02T14:15:00,2,20896173,184621
OK,46,61,812,46,2014-08-02T14:20:00,1,20896622,184621
OK,90,31,812,90,2014-08-02T14:25:00,1,20897071,184621
OK,82,34,812,82,2014-08-02T14:30:00,1,20897520,184621
OK,82,34,812,82,2014-08-02T14:35:00,1,20897969,184621
OK,99,28,812,99,2014-08-02T14:40:00,1,20898418,184621
OK,74,38,812,74,2014-08-02T14:45:00,2,20898867,184621
OK,59,48,812,59,2014-08-02T14:50:00,1,20899316,184621
OK,77,36,812,77,2014-08-02T14:55:00,2,20899765,184621
OK,98,28,812,98,2014-08-02T15:00:00,2,20900214,184621
OK,102,27,812,102,2014-08-02T15:05:00,1,20900663,184621
OK,102,27,812,102,2014-08-02T15:10:00,0,20901112,184621
OK,102,27,812,102,2014-08-02T15:15:00,0,20901561,184621
OK,102,27,812,102,2014-08-02T15:20:00,0,20902010,184621
OK,130,21,812,130,2014-08-02T15:25:00,1,20902459,184621
OK,102,27,812,102,2014-08-02T15:30:00,2,20902908,184621
OK,79,35,812,79,2014-08-02T15:35:00,1,20903357,184621
OK,66,43,812,66,2014-08-02T15:40:00,2,20903806,184621
OK,120,23,812,120,2014-08-02T15:45:00,1,20904255,184621
OK,120,23,812,120,2014-08-02T15:50:00,1,20904704,184621
OK,120,23,812,120,2014-08-02T15:55:00,0,20905153,184621
OK,120,23,812,120,2014-08-02T16:00:00,0,20905602,184621
OK,86,33,812,86,2014-08-02T16:05:00,1,20906051,184621
OK,96,29,812,96,2014-08-02T16:10:00,2,20906500,184621
OK,75,37,812,75,2014-08-02T16:15:00,2,20906949,184621
OK,45,63,812,45,2014-08-02T16:20:00,0,20907398,184621
OK,77,36,812,77,2014-08-02T16:25:00,1,20907847,184621
OK,77,36,812,77,2014-08-02T16:30:00,1,20908296,184621
OK,77,36,812,77,2014-08-02T16:35:00,0,20908745,184621
OK,77,36,812,77,2014-08-02T16:40:00,0,20909194,184621
OK,77,36,812,77,2014-08-02T16:45:00,0,20909643,184621
OK,57,49,812,57,2014-08-02T16:50:00,1,20910092,184621
OK,57,49,812,57,2014-08-02T16:55:00,1,20910541,184621
OK,63,45,812,63,2014-08-02T17:00:00,1,20910990,184621
OK,73,38,812,73,2014-08-02T17:05:00,2,20911439,184621
OK,84,33,812,84,2014-08-02T17:10:00,0,20911888,184621
OK,84,33,812,84,2014-08-02T17:15:00,0,20912337,184621
OK,82,34,812,82,2014-08-02T17:20:00,1,20912786,184621
OK,82,34,812,82,2014-08-02T17:25:00,1,20913235,184621
OK,123,23,812,123,2014-08-02T17:30:00,1,20913684,184621
OK,123,23,812,123,2014-08-02T17:35:00,1,20914133,184621
OK,123,23,812,123,2014-08-02T17:40:00,0,20914582,184621
OK,230,12,812,230,2014-08-02T17:45:00,1,20915031,184621
OK,123,23,812,123,2014-08-02T17:50:00,0,20915480,184621
OK,230,12,812,230,2014-08-02T17:55:00,0,20915929,184621
OK,230,12,812,230,2014-08-02T18:00:00,0,20916378,184621
OK,230,12,812,230,2014-08-02T18:05:00,0,20916827,184621
OK,71,40,812,71,2014-08-02T18:10:00,2,20917276,184621
OK,71,40,812,71,2014-08-02T18:15:00,2,20917725,184621
OK,67,42,812,67,2014-08-02T18:20:00,0,20918174,184621
OK,104,27,812,104,2014-08-02T18:25:00,1,20918623,184621
OK,81,35,812,81,2014-08-02T18:30:00,2,20919072,184621
OK,59,48,812,59,2014-08-02T18:35:00,1,20919521,184621
OK,59,48,812,59,2014-08-02T18:40:00,0,20919970,184621
OK,189,15,812,189,2014-08-02T18:45:00,1,20920419,184621
OK,128,22,812,128,2014-08-02T18:50:00,2,20920868,184621
OK,67,42,812,67,2014-08-02T18:55:00,1,20921317,184621
OK,67,42,812,67,2014-08-02T19:00:00,0,20921766,184621
OK,119,23,812,119,2014-08-02T19:05:00,1,20922215,184621
OK,119,23,812,119,2014-08-02T19:10:00,0,20922664,184621
OK,119,23,812,119,2014-08-02T19:15:00,0,20923113,184621
OK,119,23,812,119,2014-08-02T19:20:00,0,20923562,184621
OK,119,23,812,119,2014-08-02T19:25:00,0,20924011,184621
OK,119,23,812,119,2014-08-02T19:30:00,0,20924460,184621
OK,76,37,812,76,2014-08-02T19:35:00,0,20924909,184621
OK,76,37,812,76,2014-08-02T19:40:00,0,20925358,184621
OK,64,44,812,64,2014-08-02T19:45:00,1,20925807,184621
OK,64,44,812,64,2014-08-02T19:50:00,1,20926256,184621
OK,64,44,812,64,2014-08-02T19:55:00,0,20926705,184621
OK,72,39,812,72,2014-08-02T20:00:00,1,20927154,184621
OK,72,39,812,72,2014-08-02T20:05:00,1,20927603,184621
OK,72,39,812,72,2014-08-02T20:10:00,0,20928052,184621
OK,72,39,812,72,2014-08-02T20:15:00,0,20928501,184621
OK,72,39,812,72,2014-08-02T20:20:00,0,20928950,184621
OK,72,39,812,72,2014-08-02T20:25:00,0,20929399,184621
OK,72,39,812,72,2014-08-02T20:30:00,0,20929848,184621
OK,77,36,812,77,2014-08-02T20:35:00,1,20930297,184621
OK,77,36,812,77,2014-08-02T20:40:00,1,20930746,184621
OK,77,36,812,77,2014-08-02T20:45:00,0,20931195,184621
OK,88,32,812,88,2014-08-02T20:50:00,1,20931644,184621
OK,88,32,812,88,2014-08-02T20:55:00,1,20932093,184621
OK,76,37,812,76,2014-08-02T21:00:00,1,20932542,184621
OK,76,37,812,76,2014-08-02T21:05:00,0,20932991,184621
OK,76,37,812,76,2014-08-02T21:10:00,0,20933440,184621
OK,76,37,812,76,2014-08-02T21:15:00,0,20933889,184621
OK,68,41,812,68,2014-08-02T21:20:00,1,20934338,184621
OK,68,41,812,68,2014-08-02T21:25:00,0,20934787,184621
OK,68,41,812,68,2014-08-02T21:30:00,0,20935236,184621
OK,68,41,812,68,2014-08-02T21:35:00,0,20935685,184621
OK,68,41,812,68,2014-08-02T21:40:00,0,20936134,184621
OK,68,41,812,68,2014-08-02T21:45:00,0,20936583,184621
OK,68,41,812,68,2014-08-02T21:50:00,0,20937032,184621
OK,68,41,812,68,2014-08-02T21:55:00,0,20937481,184621
OK,68,41,812,68,2014-08-02T22:00:00,0,20937930,184621
OK,68,41,812,68,2014-08-02T22:05:00,0,20938379,184621
OK,68,41,812,68,2014-08-02T22:10:00,0,20938828,184621
OK,68,41,812,68,2014-08-02T22:15:00,0,20939277,184621
OK,68,41,812,68,2014-08-02T22:20:00,0,20939726,184621
OK,68,41,812,68,2014-08-02T22:25:00,0,20940175,184621
OK,68,41,812,68,2014-08-02T22:30:00,0,20940624,184621
OK,68,41,812,68,2014-08-02T22:35:00,0,20941073,184621
OK,68,41,812,68,2014-08-02T22:40:00,0,20941522,184621
OK,68,41,812,68,2014-08-02T22:45:00,0,20941971,184621
OK,102,27,812,102,2014-08-02T22:50:00,1,20942420,184621
OK,102,27,812,102,2014-08-02T22:55:00,0,20942869,184621
OK,82,34,812,82,2014-08-02T23:00:00,1,20943318,184621
OK,82,34,812,82,2014-08-02T23:10:00,0,20943767,184621
OK,82,34,812,82,2014-08-02T23:15:00,0,20944216,184621
OK,82,34,812,82,2014-08-02T23:20:00,0,20944665,184621
OK,82,34,812,82,2014-08-02T23:25:00,0,20945114,184621
OK,82,34,812,82,2014-08-02T23:30:00,0,20945563,184621
OK,82,34,812,82,2014-08-02T23:35:00,0,20946012,184621
OK,82,34,812,82,2014-08-02T23:40:00,0,20946461,184621
OK,82,34,812,82,2014-08-02T23:45:00,0,20946910,184621
OK,82,34,812,82,2014-08-02T23:50:00,0,20947359,184621
OK,82,34,812,82,2014-08-02T23:55:00,0,20947808,184621
OK,82,34,812,82,2014-08-03T00:00:00,0,20948257,184621
OK,82,34,812,82,2014-08-03T00:05:00,0,20948706,184621
OK,82,34,812,82,2014-08-03T00:10:00,0,20949155,184621
OK,82,34,812,82,2014-08-03T00:15:00,0,20949603,184621
OK,82,34,812,82,2014-08-03T00:20:00,0,20950052,184621
OK,82,34,812,82,2014-08-03T00:25:00,0,20950501,184621
OK,82,34,812,82,2014-08-03T00:30:00,0,20950950,184621
OK,82,34,812,82,2014-08-03T00:35:00,0,20951399,184621
OK,94,30,812,94,2014-08-03T00:40:00,1,20951848,184621
OK,94,30,812,94,2014-08-03T00:45:00,1,20952297,184621
OK,94,30,812,94,2014-08-03T00:50:00,0,20952746,184621
OK,94,30,812,94,2014-08-03T00:55:00,0,20953195,184621
OK,77,36,812,77,2014-08-03T01:00:00,1,20953644,184621
OK,77,36,812,77,2014-08-03T01:05:00,1,20954093,184621